Weather in Kuva

Russia / Perm Krai     59°07′34″N   54°10′17″E
temp.,
°C
wind,
m/s
gust,
m/s
humid.,
%
clouds,
%
prec.,
mm/h
press.,
hPa
HPBL,
m
3 march, wed
wed323:00−5w259593 1.0 992103
02:00−7wsw379564 0.0 993184
05:00−6w389578 0.0 994218
08:00−7w3696100 0.1 994193
11:00−5wnw369497 0.1 995300
14:00−3wnw368799 0.0 996737
17:00−4w4786100 0.1 996767
20:00−7wsw3893100 0.1 996338
4 march, thu
thu423:00−7w399399 0.1 997396
02:00−9w3894100 0.1 995330
05:00−11wsw379599 0.1 995192
08:00−12wsw2796100 0.0 994198
11:00−9sw3693100 0.1 994313
14:00−6s3593100 0.4 992472
17:00−5s3593100 0.9 991503
20:00−7sse2497100 0.5 990127
5 march, fri
fri523:00−8se1297100 0.6 99025
02:00−10ene019781 0.1 99021
05:00−10nne129790 0.3 99221
08:00−10nw2596100 0.6 994165
11:00−10wnw3693100 0.9 996353
14:00−9wnw3590100 0.1 997503
17:00−11wnw4788100 0.1 999623
20:00−15w3994100 0.0 1001281
6 march, sat
sat623:00−17w3109583 0.1 1003284
02:00−18w499529 0.0 1004252
05:00−20w399631 0.0 1006226
08:00−22w389711 0.0 1008151
11:00−17w25926 0.0 1008263
14:00−13wsw248693 0.0 1008622
17:00−12wsw248696 0.1 1007761
20:00−16nw129694 0.1 100720
7 march, sun
sun723:00−17nnw119796 0.1 100720
02:00−19wnw129896 0.0 100620
05:00−20wnw129892 0.1 100621
08:00−20w129886 0.1 100525
11:00−17wnw239387 0.1 1006269
14:00−14w238297 0.1 1005757
17:00−14sw238398 0.1 1005777
20:00−18s2294100 0.0 100520